Multibeam Report for SEAW02RR


Ship Name: Roger Revelle
Chief Scientist: de Moustier, Christian
Scripps Institution of Oceanography
Source Organization: University of California, Scripps Institution of Oceanography (UC/SIO)
Start Date: 2001-02-17
End Date: 2001-02-25


View ISO Metadata

Visit the full NCEI Bathymetry Viewer


Multibeam Bathymetry

Cruise Details

Project: Seaweed Expedition Leg 02
Instrument: Simrad EM120

Data Quality

Number of Files: 452
Number of Records: 39494
BATHYMETRY DATA Quantity Percentage
Number of Beams 7543354 100%
Number of Good Beams 6842618 90.71%
Number of Zero Beams 700736 9.29%
Number of Flagged Beams 0 0%
AMPLITUDE DATA Quantity Percentage
Number of Beams 7543354 100%
Number of Good Beams 6842618 90.71%
Number of Zero Beams 700736 9.29%
Number of Flagged Beams 0 0%
SIDESCAN DATA Quantity Percentage
Number of Pixels 40441856 100%
Number of Good Pixels 25826851 63.86%
Number of Zero Pixels 14615005 36.14%
Number of Flagged Pixels 0 0%

Navigation Totals

Total Time: 152.1627 hours
Total Track Length: 3463.0194 km
Average Speed: 22.759 km/hr (12.2889 knots)

Cruise Bounds

Northern Extent: 32.635914
Southern Extent: 19.732006
Western Extent: -155.08328
Eastern Extent: -117.57013

Limits

Minimum Sonar Depth -2.03 Maximum Sonar Depth 24248.3203
Minimum Altitude 0 Maximum Altitude 6178.7798
Minimum Depth 9.03 Maximum Depth 9319.5098
Minimum Amplitude 0.5 Maximum Amplitude 112.5
Minimum Sidescan 0.05 Maximum Sidescan 125.5

File Information

Full Resolution Bathymetry as collected (raw): 225

Files File Size Description
0001_20010217_175917p.mb57.gz 234.2KB Simrad multibeam processing format
0001_20010217_185849p.mb57.gz 13.14MB Simrad multibeam processing format
0001_20010218_065709p.mb57.gz 6.51MB Simrad multibeam processing format
0001_20010218_123233p.mb57.gz 22.07MB Simrad multibeam processing format
0001_20010218_204620p.mb57.gz 60.4KB Simrad multibeam processing format
0001_20010218_210203p.mb57.gz 461.9KB Simrad multibeam processing format
0001_20010218_211329p.mb57.gz 4.98MB Simrad multibeam processing format
0001_20010218_231749p.mb57.gz 251.4KB Simrad multibeam processing format
0001_20010218_234248p.mb57.gz 1.29MB Simrad multibeam processing format
0001_20010219_001426p.mb57.gz 1.73MB Simrad multibeam processing format
0001_20010219_011231p.mb57.gz 2.88MB Simrad multibeam processing format
0001_20010219_022734p.mb57.gz 4.85MB Simrad multibeam processing format
0001_20010219_223932p.mb57.gz 10.33MB Simrad multibeam processing format
0001_20010220_022444p.mb57.gz 3.30MB Simrad multibeam processing format
0001_20010220_073649p.mb57.gz 3.43MB Simrad multibeam processing format
0001_20010220_184151p.mb57.gz 1.28MB Simrad multibeam processing format
0001_20010220_233142p.mb57.gz 180.5KB Simrad multibeam processing format
0001_20010221_092135p.mb57.gz 47.2KB Simrad multibeam processing format
0001_20010221_155425p.mb57.gz 2.66MB Simrad multibeam processing format
0001_20010222_003506p.mb57.gz 2.50MB Simrad multibeam processing format
0001_20010222_172230p.mb57.gz 3.48MB Simrad multibeam processing format
0001_20010223_070625p.mb57.gz 305.2KB Simrad multibeam processing format
0001_20010223_170719p.mb57.gz 3.58MB Simrad multibeam processing format
0001_20010224_011140p.mb57.gz 214.4KB Simrad multibeam processing format
0001_20010224_030502p.mb57.gz 0.56MB Simrad multibeam processing format
0001_20010224_080421p.mb57.gz 2.56MB Simrad multibeam processing format
0001_20010224_184651p.mb57.gz 3.80MB Simrad multibeam processing format
0001_20010225_005225p.mb57.gz 196.1KB Simrad multibeam processing format
0001_20010225_012233p.mb57.gz 1.49MB Simrad multibeam processing format
0001_20010225_021243p.mb57.gz 1.12MB Simrad multibeam processing format
0001_20010225_031434p.mb57.gz 10.16MB Simrad multibeam processing format
0001_20010225_060311p.mb57.gz 1.30MB Simrad multibeam processing format
0001_20010225_133808p.mb57.gz 4.21MB Simrad multibeam processing format
0001_20010225_175421p.mb57.gz 6.00MB Simrad multibeam processing format
0002_20010217_180202p.mb57.gz 8.41MB Simrad multibeam processing format
0002_20010217_195850p.mb57.gz 0.53MB Simrad multibeam processing format
0002_20010218_073744p.mb57.gz 2.37MB Simrad multibeam processing format
0002_20010218_165838p.mb57.gz 3.36MB Simrad multibeam processing format
0002_20010218_221331p.mb57.gz 454.1KB Simrad multibeam processing format
0002_20010218_232232p.mb57.gz 0.66MB Simrad multibeam processing format
0002_20010218_235851p.mb57.gz 0.57MB Simrad multibeam processing format
0002_20010219_015015p.mb57.gz 2.39MB Simrad multibeam processing format
0002_20010219_032736p.mb57.gz 4.74MB Simrad multibeam processing format
0002_20010219_233933p.mb57.gz 10.15MB Simrad multibeam processing format
0002_20010220_032444p.mb57.gz 3.18MB Simrad multibeam processing format
0002_20010220_083649p.mb57.gz 3.51MB Simrad multibeam processing format
0002_20010220_193750p.mb57.gz 1.30MB Simrad multibeam processing format
0002_20010221_092255p.mb57.gz 2.49MB Simrad multibeam processing format
0002_20010221_165425p.mb57.gz 2.40MB Simrad multibeam processing format
0002_20010222_013506p.mb57.gz 2.50MB Simrad multibeam processing format
0002_20010222_182230p.mb57.gz 3.59MB Simrad multibeam processing format
0002_20010223_071252p.mb57.gz 3.44MB Simrad multibeam processing format
0002_20010223_180719p.mb57.gz 3.60MB Simrad multibeam processing format
0002_20010224_011456p.mb57.gz 2.43MB Simrad multibeam processing format
0002_20010224_031400p.mb57.gz 3.87MB Simrad multibeam processing format
0002_20010224_090421p.mb57.gz 2.73MB Simrad multibeam processing format
0002_20010224_201041p.mb57.gz 170.6KB Simrad multibeam processing format
0002_20010225_014711p.mb57.gz 1.58MB Simrad multibeam processing format
0002_20010225_024046p.mb57.gz 1.44MB Simrad multibeam processing format
0002_20010225_064609p.mb57.gz 1.21MB Simrad multibeam processing format
0002_20010225_184404p.mb57.gz 18.85MB Simrad multibeam processing format
0003_20010217_200359p.mb57.gz 1.03MB Simrad multibeam processing format
0003_20010218_082619p.mb57.gz 2.33MB Simrad multibeam processing format
0003_20010218_174036p.mb57.gz 5.11MB Simrad multibeam processing format
0003_20010219_042737p.mb57.gz 3.56MB Simrad multibeam processing format
0003_20010220_003935p.mb57.gz 10.21MB Simrad multibeam processing format
0003_20010220_042444p.mb57.gz 0.55MB Simrad multibeam processing format
0003_20010220_093649p.mb57.gz 3.48MB Simrad multibeam processing format
0003_20010220_211828p.mb57.gz 1.30MB Simrad multibeam processing format
0003_20010220_233726p.mb57.gz 2.10MB Simrad multibeam processing format
0003_20010221_102255p.mb57.gz 2.46MB Simrad multibeam processing format
0003_20010221_175425p.mb57.gz 2.44MB Simrad multibeam processing format
0003_20010222_023506p.mb57.gz 2.55MB Simrad multibeam processing format
0003_20010222_192230p.mb57.gz 0.91MB Simrad multibeam processing format
0003_20010223_081252p.mb57.gz 3.55MB Simrad multibeam processing format
0003_20010223_190719p.mb57.gz 3.52MB Simrad multibeam processing format
0003_20010224_041400p.mb57.gz 3.98MB Simrad multibeam processing format
0003_20010224_100421p.mb57.gz 2.35MB Simrad multibeam processing format
0003_20010224_201631p.mb57.gz 2.28MB Simrad multibeam processing format
0003_20010225_005954p.mb57.gz 0.78MB Simrad multibeam processing format
0003_20010225_041234p.mb57.gz 26.8KB Simrad multibeam processing format
0003_20010225_073442p.mb57.gz 1.04MB Simrad multibeam processing format
0003_20010225_185747p.mb57.gz 240.4KB Simrad multibeam processing format
0004_20010217_201719p.mb57.gz 6.77MB Simrad multibeam processing format
0004_20010218_090609p.mb57.gz 6.27MB Simrad multibeam processing format
0004_20010218_184037p.mb57.gz 4.01MB Simrad multibeam processing format
0004_20010219_051202p.mb57.gz 4.83MB Simrad multibeam processing format
0004_20010220_013936p.mb57.gz 1.69MB Simrad multibeam processing format
0004_20010220_043615p.mb57.gz 2.97MB Simrad multibeam processing format
0004_20010220_103649p.mb57.gz 3.54MB Simrad multibeam processing format
0004_20010221_003726p.mb57.gz 0.50MB Simrad multibeam processing format
0004_20010221_112255p.mb57.gz 2.60MB Simrad multibeam processing format
0004_20010221_185425p.mb57.gz 2.46MB Simrad multibeam processing format
0004_20010222_033506p.mb57.gz 1.09MB Simrad multibeam processing format
0004_20010222_193742p.mb57.gz 3.41MB Simrad multibeam processing format
0004_20010223_091252p.mb57.gz 3.55MB Simrad multibeam processing format
0004_20010223_200719p.mb57.gz 3.77MB Simrad multibeam processing format
0004_20010224_110421p.mb57.gz 2.48MB Simrad multibeam processing format
0004_20010224_210657p.mb57.gz 1.34MB Simrad multibeam processing format
0004_20010225_041534p.mb57.gz 2.14MB Simrad multibeam processing format
0004_20010225_081906p.mb57.gz 1.07MB Simrad multibeam processing format
0004_20010225_185805p.mb57.gz 17.65MB Simrad multibeam processing format
0005_20010217_211721p.mb57.gz 7.95MB Simrad multibeam processing format
0005_20010219_061203p.mb57.gz 2.06MB Simrad multibeam processing format
0005_20010220_113649p.mb57.gz 2.45MB Simrad multibeam processing format
0005_20010220_220134p.mb57.gz 2.36MB Simrad multibeam processing format
0005_20010221_005227p.mb57.gz 1.35MB Simrad multibeam processing format
0005_20010221_122255p.mb57.gz 2.48MB Simrad multibeam processing format
0005_20010221_195425p.mb57.gz 2.44MB Simrad multibeam processing format
0005_20010222_035940p.mb57.gz 51.2KB Simrad multibeam processing format
0005_20010222_203742p.mb57.gz 3.35MB Simrad multibeam processing format
0005_20010223_101252p.mb57.gz 3.57MB Simrad multibeam processing format
0005_20010223_210719p.mb57.gz 2.49MB Simrad multibeam processing format
0005_20010224_120421p.mb57.gz 2.63MB Simrad multibeam processing format
0005_20010224_214022p.mb57.gz 1.79MB Simrad multibeam processing format
0005_20010225_045155p.mb57.gz 45.0KB Simrad multibeam processing format
0005_20010225_090623p.mb57.gz 0.97MB Simrad multibeam processing format
0006_20010217_221722p.mb57.gz 7.17MB Simrad multibeam processing format
0006_20010218_192944p.mb57.gz 4.51MB Simrad multibeam processing format
0006_20010219_063738p.mb57.gz 63.0KB Simrad multibeam processing format
0006_20010220_015030p.mb57.gz 4.58MB Simrad multibeam processing format
0006_20010220_123649p.mb57.gz 2.24MB Simrad multibeam processing format
0006_20010221_014849p.mb57.gz 49.5KB Simrad multibeam processing format
0006_20010221_132256p.mb57.gz 2.41MB Simrad multibeam processing format
0006_20010221_205425p.mb57.gz 2.43MB Simrad multibeam processing format
0006_20010222_040037p.mb57.gz 251.9KB Simrad multibeam processing format
0006_20010222_213742p.mb57.gz 3.44MB Simrad multibeam processing format
0006_20010223_111252p.mb57.gz 3.45MB Simrad multibeam processing format
0006_20010224_130421p.mb57.gz 2.80MB Simrad multibeam processing format
0006_20010224_222152p.mb57.gz 2.00MB Simrad multibeam processing format
0006_20010225_045418p.mb57.gz 365.4KB Simrad multibeam processing format
0006_20010225_094936p.mb57.gz 1.03MB Simrad multibeam processing format
0007_20010217_230731p.mb57.gz 0.84MB Simrad multibeam processing format
0007_20010219_063858p.mb57.gz 2.90MB Simrad multibeam processing format
0007_20010220_133649p.mb57.gz 2.50MB Simrad multibeam processing format
0007_20010220_230134p.mb57.gz 0.74MB Simrad multibeam processing format
0007_20010221_015023p.mb57.gz 2.07MB Simrad multibeam processing format
0007_20010221_142256p.mb57.gz 2.45MB Simrad multibeam processing format
0007_20010221_215425p.mb57.gz 2.38MB Simrad multibeam processing format
0007_20010222_040755p.mb57.gz 2.50MB Simrad multibeam processing format
0007_20010222_223742p.mb57.gz 2.44MB Simrad multibeam processing format
0007_20010223_121252p.mb57.gz 3.52MB Simrad multibeam processing format
0007_20010223_220004p.mb57.gz 1.51MB Simrad multibeam processing format
0007_20010224_140421p.mb57.gz 2.73MB Simrad multibeam processing format
0007_20010224_232050p.mb57.gz 3.61MB Simrad multibeam processing format
0007_20010225_050214p.mb57.gz 127.1KB Simrad multibeam processing format
0007_20010225_103824p.mb57.gz 1.40MB Simrad multibeam processing format
0008_20010217_231702p.mb57.gz 61.7KB Simrad multibeam processing format
0008_20010219_071604p.mb57.gz 2.98MB Simrad multibeam processing format
0008_20010220_143650p.mb57.gz 2.45MB Simrad multibeam processing format
0008_20010221_025023p.mb57.gz 0.53MB Simrad multibeam processing format
0008_20010221_152256p.mb57.gz 1.10MB Simrad multibeam processing format
0008_20010221_225425p.mb57.gz 2.42MB Simrad multibeam processing format
0008_20010222_050755p.mb57.gz 3.64MB Simrad multibeam processing format
0008_20010222_232016p.mb57.gz 3.45MB Simrad multibeam processing format
0008_20010223_131253p.mb57.gz 3.44MB Simrad multibeam processing format
0008_20010224_150421p.mb57.gz 2.75MB Simrad multibeam processing format
0008_20010225_111957p.mb57.gz 1.39MB Simrad multibeam processing format
0009_20010217_231819p.mb57.gz 49.9KB Simrad multibeam processing format
0009_20010219_075336p.mb57.gz 2.29MB Simrad multibeam processing format
0009_20010220_153650p.mb57.gz 2.41MB Simrad multibeam processing format
0009_20010221_030536p.mb57.gz 1.48MB Simrad multibeam processing format
0009_20010221_155102p.mb57.gz 96.4KB Simrad multibeam processing format
0009_20010221_235425p.mb57.gz 0.52MB Simrad multibeam processing format
0009_20010222_060755p.mb57.gz 400.9KB Simrad multibeam processing format
0009_20010223_002016p.mb57.gz 3.43MB Simrad multibeam processing format
0009_20010223_141253p.mb57.gz 3.47MB Simrad multibeam processing format
0009_20010224_160421p.mb57.gz 1.92MB Simrad multibeam processing format
0009_20010225_120031p.mb57.gz 1.31MB Simrad multibeam processing format
0010_20010217_231931p.mb57.gz 49.4KB Simrad multibeam processing format
0010_20010219_081753p.mb57.gz 4.75MB Simrad multibeam processing format
0010_20010220_163650p.mb57.gz 2.49MB Simrad multibeam processing format
0010_20010221_035216p.mb57.gz 1.49MB Simrad multibeam processing format
0010_20010222_000837p.mb57.gz 0.99MB Simrad multibeam processing format
0010_20010222_061436p.mb57.gz 3.59MB Simrad multibeam processing format
0010_20010223_012016p.mb57.gz 3.50MB Simrad multibeam processing format
0010_20010223_151253p.mb57.gz 3.34MB Simrad multibeam processing format
0010_20010224_164608p.mb57.gz 2.59MB Simrad multibeam processing format
0010_20010225_123108p.mb57.gz 1.08MB Simrad multibeam processing format
0011_20010217_232157p.mb57.gz 17.24MB Simrad multibeam processing format
0011_20010219_091755p.mb57.gz 4.79MB Simrad multibeam processing format
0011_20010220_173650p.mb57.gz 2.30MB Simrad multibeam processing format
0011_20010221_042705p.mb57.gz 1.47MB Simrad multibeam processing format
0011_20010222_071436p.mb57.gz 3.64MB Simrad multibeam processing format
0011_20010223_022017p.mb57.gz 3.42MB Simrad multibeam processing format
0011_20010224_174608p.mb57.gz 2.37MB Simrad multibeam processing format
0012_20010218_001502p.mb57.gz 18.02MB Simrad multibeam processing format
0012_20010219_101757p.mb57.gz 4.76MB Simrad multibeam processing format
0012_20010222_081436p.mb57.gz 3.65MB Simrad multibeam processing format
0012_20010223_032017p.mb57.gz 3.48MB Simrad multibeam processing format
0013_20010218_011503p.mb57.gz 2.54MB Simrad multibeam processing format
0013_20010219_111758p.mb57.gz 4.87MB Simrad multibeam processing format
0013_20010222_091436p.mb57.gz 3.67MB Simrad multibeam processing format
0013_20010223_042017p.mb57.gz 2.19MB Simrad multibeam processing format
0014_20010218_014456p.mb57.gz 2.44MB Simrad multibeam processing format
0014_20010219_121800p.mb57.gz 4.66MB Simrad multibeam processing format
0014_20010222_101436p.mb57.gz 3.56MB Simrad multibeam processing format
0014_20010223_045811p.mb57.gz 163.9KB Simrad multibeam processing format
0015_20010218_020717p.mb57.gz 3.40MB Simrad multibeam processing format
0015_20010219_131801p.mb57.gz 5.06MB Simrad multibeam processing format
0015_20010222_111436p.mb57.gz 3.60MB Simrad multibeam processing format
0016_20010218_022843p.mb57.gz 56.0KB Simrad multibeam processing format
0016_20010219_141803p.mb57.gz 4.99MB Simrad multibeam processing format
0016_20010222_121436p.mb57.gz 3.64MB Simrad multibeam processing format
0017_20010218_022859p.mb57.gz 9.05MB Simrad multibeam processing format
0017_20010219_151804p.mb57.gz 5.14MB Simrad multibeam processing format
0017_20010222_131436p.mb57.gz 3.65MB Simrad multibeam processing format
0018_20010218_032900p.mb57.gz 5.27MB Simrad multibeam processing format
0018_20010219_161806p.mb57.gz 0.92MB Simrad multibeam processing format
0018_20010222_141436p.mb57.gz 3.90MB Simrad multibeam processing format
0019_20010218_042902p.mb57.gz 4.61MB Simrad multibeam processing format
0019_20010219_164500p.mb57.gz 181.7KB Simrad multibeam processing format
0019_20010222_151436p.mb57.gz 3.85MB Simrad multibeam processing format
0020_20010218_052903p.mb57.gz 2.75MB Simrad multibeam processing format
0020_20010222_161436p.mb57.gz 3.79MB Simrad multibeam processing format
0021_20010219_165516p.mb57.gz 4.30MB Simrad multibeam processing format
0022_20010219_175518p.mb57.gz 4.20MB Simrad multibeam processing format
0023_20010219_185519p.mb57.gz 2.65MB Simrad multibeam processing format
0024_20010219_194105p.mb57.gz 7.28MB Simrad multibeam processing format
0025_20010219_202658p.mb57.gz 5.86MB Simrad multibeam processing format
0027_20010219_210525p.mb57.gz 1.90MB Simrad multibeam processing format
0028_20010219_211701p.mb57.gz 10.24MB Simrad multibeam processing format
0029_20010219_221730p.mb57.gz 137.4KB Simrad multibeam processing format
0030_20010219_222625p.mb57.gz 1.29MB Simrad multibeam processing format
0031_20010219_223519p.mb57.gz 290.6KB Simrad multibeam processing format

Metadata Files: 227

Files File Size Description
SEAW02RR_Multibeam.xml NGDC created ISO metadata
0001_20010217_175917p.mb57.mif 13.3KB Metadata I?? File for each individual data file
0001_20010217_185849p.mb57.mif 13.3KB Metadata I?? File for each individual data file
0001_20010218_065709p.mb57.mif 13.3KB Metadata I?? File for each individual data file
0001_20010218_123233p.mb57.mif 13.3KB Metadata I?? File for each individual data file
0001_20010218_204620p.mb57.mif 13.3KB Metadata I?? File for each individual data file
0001_20010218_210203p.mb57.mif 13.3KB Metadata I?? File for each individual data file
0001_20010218_211329p.mb57.mif 13.3KB Metadata I?? File for each individual data file
0001_20010218_231749p.mb57.mif 13.3KB Metadata I?? File for each individual data file
0001_20010218_234248p.mb57.mif 13.3KB Metadata I?? File for each individual data file
0001_20010219_001426p.mb57.mif 13.3KB Metadata I?? File for each individual data file
0001_20010219_011231p.mb57.mif 13.3KB Metadata I?? File for each individual data file
0001_20010219_022734p.mb57.mif 13.3KB Metadata I?? File for each individual data file
0001_20010219_223932p.mb57.mif 13.3KB Metadata I?? File for each individual data file
0001_20010220_022444p.mb57.mif 13.3KB Metadata I?? File for each individual data file
0001_20010220_073649p.mb57.mif 13.3KB Metadata I?? File for each individual data file
0001_20010220_184151p.mb57.mif 13.3KB Metadata I?? File for each individual data file
0001_20010220_233142p.mb57.mif 13.3KB Metadata I?? File for each individual data file
0001_20010221_092135p.mb57.mif 13.3KB Metadata I?? File for each individual data file
0001_20010221_155425p.mb57.mif 13.3KB Metadata I?? File for each individual data file
0001_20010222_003506p.mb57.mif 13.3KB Metadata I?? File for each individual data file
0001_20010222_172230p.mb57.mif 13.3KB Metadata I?? File for each individual data file
0001_20010223_070625p.mb57.mif 13.3KB Metadata I?? File for each individual data file
0001_20010223_170719p.mb57.mif 13.3KB Metadata I?? File for each individual data file
0001_20010224_011140p.mb57.mif 13.3KB Metadata I?? File for each individual data file
0001_20010224_030502p.mb57.mif 13.3KB Metadata I?? File for each individual data file
0001_20010224_080421p.mb57.mif 13.3KB Metadata I?? File for each individual data file
0001_20010224_184651p.mb57.mif 13.3KB Metadata I?? File for each individual data file
0001_20010225_005225p.mb57.mif 13.3KB Metadata I?? File for each individual data file
0001_20010225_012233p.mb57.mif 13.3KB Metadata I?? File for each individual data file
0001_20010225_021243p.mb57.mif 13.3KB Metadata I?? File for each individual data file
0001_20010225_031434p.mb57.mif 13.3KB Metadata I?? File for each individual data file
0001_20010225_060311p.mb57.mif 13.3KB Metadata I?? File for each individual data file
0001_20010225_133808p.mb57.mif 13.3KB Metadata I?? File for each individual data file
0001_20010225_175421p.mb57.mif 13.3KB Metadata I?? File for each individual data file
0002_20010217_180202p.mb57.mif 13.3KB Metadata I?? File for each individual data file
0002_20010217_195850p.mb57.mif 13.3KB Metadata I?? File for each individual data file
0002_20010218_073744p.mb57.mif 13.3KB Metadata I?? File for each individual data file
0002_20010218_165838p.mb57.mif 13.3KB Metadata I?? File for each individual data file
0002_20010218_221331p.mb57.mif 13.3KB Metadata I?? File for each individual data file
0002_20010218_232232p.mb57.mif 13.3KB Metadata I?? File for each individual data file
0002_20010218_235851p.mb57.mif 13.3KB Metadata I?? File for each individual data file
0002_20010219_015015p.mb57.mif 13.3KB Metadata I?? File for each individual data file
0002_20010219_032736p.mb57.mif 13.3KB Metadata I?? File for each individual data file
0002_20010219_233933p.mb57.mif 13.3KB Metadata I?? File for each individual data file
0002_20010220_032444p.mb57.mif 13.3KB Metadata I?? File for each individual data file
0002_20010220_083649p.mb57.mif 13.3KB Metadata I?? File for each individual data file
0002_20010220_193750p.mb57.mif 13.3KB Metadata I?? File for each individual data file
0002_20010221_092255p.mb57.mif 13.3KB Metadata I?? File for each individual data file
0002_20010221_165425p.mb57.mif 13.3KB Metadata I?? File for each individual data file
0002_20010222_013506p.mb57.mif 13.3KB Metadata I?? File for each individual data file
0002_20010222_182230p.mb57.mif 13.3KB Metadata I?? File for each individual data file
0002_20010223_071252p.mb57.mif 13.3KB Metadata I?? File for each individual data file
0002_20010223_180719p.mb57.mif 13.3KB Metadata I?? File for each individual data file
0002_20010224_011456p.mb57.mif 13.3KB Metadata I?? File for each individual data file
0002_20010224_031400p.mb57.mif 13.3KB Metadata I?? File for each individual data file
0002_20010224_090421p.mb57.mif 13.3KB Metadata I?? File for each individual data file
0002_20010224_201041p.mb57.mif 13.3KB Metadata I?? File for each individual data file
0002_20010225_014711p.mb57.mif 13.3KB Metadata I?? File for each individual data file
0002_20010225_024046p.mb57.mif 13.3KB Metadata I?? File for each individual data file
0002_20010225_064609p.mb57.mif 13.3KB Metadata I?? File for each individual data file
0002_20010225_184404p.mb57.mif 13.3KB Metadata I?? File for each individual data file
0003_20010217_200359p.mb57.mif 13.3KB Metadata I?? File for each individual data file
0003_20010218_082619p.mb57.mif 13.3KB Metadata I?? File for each individual data file
0003_20010218_174036p.mb57.mif 13.3KB Metadata I?? File for each individual data file
0003_20010219_042737p.mb57.mif 13.3KB Metadata I?? File for each individual data file
0003_20010220_003935p.mb57.mif 13.3KB Metadata I?? File for each individual data file
0003_20010220_042444p.mb57.mif 13.3KB Metadata I?? File for each individual data file
0003_20010220_093649p.mb57.mif 13.3KB Metadata I?? File for each individual data file
0003_20010220_211828p.mb57.mif 13.3KB Metadata I?? File for each individual data file
0003_20010220_233726p.mb57.mif 13.3KB Metadata I?? File for each individual data file
0003_20010221_102255p.mb57.mif 13.3KB Metadata I?? File for each individual data file
0003_20010221_175425p.mb57.mif 13.3KB Metadata I?? File for each individual data file
0003_20010222_023506p.mb57.mif 13.3KB Metadata I?? File for each individual data file
0003_20010222_192230p.mb57.mif 13.3KB Metadata I?? File for each individual data file
0003_20010223_081252p.mb57.mif 13.3KB Metadata I?? File for each individual data file
0003_20010223_190719p.mb57.mif 13.3KB Metadata I?? File for each individual data file
0003_20010224_041400p.mb57.mif 13.3KB Metadata I?? File for each individual data file
0003_20010224_100421p.mb57.mif 13.3KB Metadata I?? File for each individual data file
0003_20010224_201631p.mb57.mif 13.3KB Metadata I?? File for each individual data file
0003_20010225_005954p.mb57.mif 13.3KB Metadata I?? File for each individual data file
0003_20010225_041234p.mb57.mif 13.3KB Metadata I?? File for each individual data file
0003_20010225_073442p.mb57.mif 13.3KB Metadata I?? File for each individual data file
0003_20010225_185747p.mb57.mif 13.3KB Metadata I?? File for each individual data file
0004_20010217_201719p.mb57.mif 13.3KB Metadata I?? File for each individual data file
0004_20010218_090609p.mb57.mif 13.3KB Metadata I?? File for each individual data file
0004_20010218_184037p.mb57.mif 13.3KB Metadata I?? File for each individual data file
0004_20010219_051202p.mb57.mif 13.3KB Metadata I?? File for each individual data file
0004_20010220_013936p.mb57.mif 13.3KB Metadata I?? File for each individual data file
0004_20010220_043615p.mb57.mif 13.3KB Metadata I?? File for each individual data file
0004_20010220_103649p.mb57.mif 13.3KB Metadata I?? File for each individual data file
0004_20010221_003726p.mb57.mif 13.3KB Metadata I?? File for each individual data file
0004_20010221_112255p.mb57.mif 13.3KB Metadata I?? File for each individual data file
0004_20010221_185425p.mb57.mif 13.3KB Metadata I?? File for each individual data file
0004_20010222_033506p.mb57.mif 13.3KB Metadata I?? File for each individual data file
0004_20010222_193742p.mb57.mif 13.3KB Metadata I?? File for each individual data file
0004_20010223_091252p.mb57.mif 13.3KB Metadata I?? File for each individual data file
0004_20010223_200719p.mb57.mif 13.3KB Metadata I?? File for each individual data file
0004_20010224_110421p.mb57.mif 13.3KB Metadata I?? File for each individual data file
0004_20010224_210657p.mb57.mif 13.3KB Metadata I?? File for each individual data file
0004_20010225_041534p.mb57.mif 13.3KB Metadata I?? File for each individual data file
0004_20010225_081906p.mb57.mif 13.3KB Metadata I?? File for each individual data file
0004_20010225_185805p.mb57.mif 13.3KB Metadata I?? File for each individual data file
0005_20010217_211721p.mb57.mif 13.3KB Metadata I?? File for each individual data file
0005_20010219_061203p.mb57.mif 13.3KB Metadata I?? File for each individual data file
0005_20010220_113649p.mb57.mif 13.3KB Metadata I?? File for each individual data file
0005_20010220_220134p.mb57.mif 13.3KB Metadata I?? File for each individual data file
0005_20010221_005227p.mb57.mif 13.3KB Metadata I?? File for each individual data file
0005_20010221_122255p.mb57.mif 13.3KB Metadata I?? File for each individual data file
0005_20010221_195425p.mb57.mif 13.3KB Metadata I?? File for each individual data file
0005_20010222_035940p.mb57.mif 13.3KB Metadata I?? File for each individual data file
0005_20010222_203742p.mb57.mif 13.3KB Metadata I?? File for each individual data file
0005_20010223_101252p.mb57.mif 13.3KB Metadata I?? File for each individual data file
0005_20010223_210719p.mb57.mif 13.3KB Metadata I?? File for each individual data file
0005_20010224_120421p.mb57.mif 13.3KB Metadata I?? File for each individual data file
0005_20010224_214022p.mb57.mif 13.3KB Metadata I?? File for each individual data file
0005_20010225_045155p.mb57.mif 13.3KB Metadata I?? File for each individual data file
0005_20010225_090623p.mb57.mif 13.3KB Metadata I?? File for each individual data file
0006_20010217_221722p.mb57.mif 13.3KB Metadata I?? File for each individual data file
0006_20010218_192944p.mb57.mif 13.3KB Metadata I?? File for each individual data file
0006_20010219_063738p.mb57.mif 13.3KB Metadata I?? File for each individual data file
0006_20010220_015030p.mb57.mif 13.3KB Metadata I?? File for each individual data file
0006_20010220_123649p.mb57.mif 13.3KB Metadata I?? File for each individual data file
0006_20010221_014849p.mb57.mif 13.3KB Metadata I?? File for each individual data file
0006_20010221_132256p.mb57.mif 13.3KB Metadata I?? File for each individual data file
0006_20010221_205425p.mb57.mif 13.3KB Metadata I?? File for each individual data file
0006_20010222_040037p.mb57.mif 13.3KB Metadata I?? File for each individual data file
0006_20010222_213742p.mb57.mif 13.3KB Metadata I?? File for each individual data file
0006_20010223_111252p.mb57.mif 13.3KB Metadata I?? File for each individual data file
0006_20010224_130421p.mb57.mif 13.3KB Metadata I?? File for each individual data file
0006_20010224_222152p.mb57.mif 13.3KB Metadata I?? File for each individual data file
0006_20010225_045418p.mb57.mif 13.3KB Metadata I?? File for each individual data file
0006_20010225_094936p.mb57.mif 13.3KB Metadata I?? File for each individual data file
0007_20010217_230731p.mb57.mif 13.3KB Metadata I?? File for each individual data file
0007_20010219_063858p.mb57.mif 13.3KB Metadata I?? File for each individual data file
0007_20010220_133649p.mb57.mif 13.3KB Metadata I?? File for each individual data file
0007_20010220_230134p.mb57.mif 13.3KB Metadata I?? File for each individual data file
0007_20010221_015023p.mb57.mif 13.3KB Metadata I?? File for each individual data file
0007_20010221_142256p.mb57.mif 13.3KB Metadata I?? File for each individual data file
0007_20010221_215425p.mb57.mif 13.3KB Metadata I?? File for each individual data file
0007_20010222_040755p.mb57.mif 13.3KB Metadata I?? File for each individual data file
0007_20010222_223742p.mb57.mif 13.3KB Metadata I?? File for each individual data file
0007_20010223_121252p.mb57.mif 13.3KB Metadata I?? File for each individual data file
0007_20010223_220004p.mb57.mif 13.3KB Metadata I?? File for each individual data file
0007_20010224_140421p.mb57.mif 13.3KB Metadata I?? File for each individual data file
0007_20010224_232050p.mb57.mif 13.3KB Metadata I?? File for each individual data file
0007_20010225_050214p.mb57.mif 13.3KB Metadata I?? File for each individual data file
0007_20010225_103824p.mb57.mif 13.3KB Metadata I?? File for each individual data file
0008_20010217_231702p.mb57.mif 13.3KB Metadata I?? File for each individual data file
0008_20010219_071604p.mb57.mif 13.3KB Metadata I?? File for each individual data file
0008_20010220_143650p.mb57.mif 13.3KB Metadata I?? File for each individual data file
0008_20010221_025023p.mb57.mif 13.3KB Metadata I?? File for each individual data file
0008_20010221_152256p.mb57.mif 13.3KB Metadata I?? File for each individual data file
0008_20010221_225425p.mb57.mif 13.3KB Metadata I?? File for each individual data file
0008_20010222_050755p.mb57.mif 13.3KB Metadata I?? File for each individual data file
0008_20010222_232016p.mb57.mif 13.3KB Metadata I?? File for each individual data file
0008_20010223_131253p.mb57.mif 13.3KB Metadata I?? File for each individual data file
0008_20010224_150421p.mb57.mif 13.3KB Metadata I?? File for each individual data file
0008_20010225_111957p.mb57.mif 13.3KB Metadata I?? File for each individual data file
0009_20010217_231819p.mb57.mif 13.3KB Metadata I?? File for each individual data file
0009_20010219_075336p.mb57.mif 13.3KB Metadata I?? File for each individual data file
0009_20010220_153650p.mb57.mif 13.3KB Metadata I?? File for each individual data file
0009_20010221_030536p.mb57.mif 13.3KB Metadata I?? File for each individual data file
0009_20010221_155102p.mb57.mif 13.3KB Metadata I?? File for each individual data file
0009_20010221_235425p.mb57.mif 13.3KB Metadata I?? File for each individual data file
0009_20010222_060755p.mb57.mif 13.3KB Metadata I?? File for each individual data file
0009_20010223_002016p.mb57.mif 13.3KB Metadata I?? File for each individual data file
0009_20010223_141253p.mb57.mif 13.3KB Metadata I?? File for each individual data file
0009_20010224_160421p.mb57.mif 13.3KB Metadata I?? File for each individual data file
0009_20010225_120031p.mb57.mif 13.3KB Metadata I?? File for each individual data file
0010_20010217_231931p.mb57.mif 13.3KB Metadata I?? File for each individual data file
0010_20010219_081753p.mb57.mif 13.3KB Metadata I?? File for each individual data file
0010_20010220_163650p.mb57.mif 13.3KB Metadata I?? File for each individual data file
0010_20010221_035216p.mb57.mif 13.3KB Metadata I?? File for each individual data file
0010_20010222_000837p.mb57.mif 13.3KB Metadata I?? File for each individual data file
0010_20010222_061436p.mb57.mif 13.3KB Metadata I?? File for each individual data file
0010_20010223_012016p.mb57.mif 13.3KB Metadata I?? File for each individual data file
0010_20010223_151253p.mb57.mif 13.3KB Metadata I?? File for each individual data file
0010_20010224_164608p.mb57.mif 13.3KB Metadata I?? File for each individual data file
0010_20010225_123108p.mb57.mif 13.3KB Metadata I?? File for each individual data file
0011_20010217_232157p.mb57.mif 13.3KB Metadata I?? File for each individual data file
0011_20010219_091755p.mb57.mif 13.3KB Metadata I?? File for each individual data file
0011_20010220_173650p.mb57.mif 13.3KB Metadata I?? File for each individual data file
0011_20010221_042705p.mb57.mif 13.3KB Metadata I?? File for each individual data file
0011_20010222_071436p.mb57.mif 13.3KB Metadata I?? File for each individual data file
0011_20010223_022017p.mb57.mif 13.3KB Metadata I?? File for each individual data file
0011_20010224_174608p.mb57.mif 13.3KB Metadata I?? File for each individual data file
0012_20010218_001502p.mb57.mif 13.3KB Metadata I?? File for each individual data file
0012_20010219_101757p.mb57.mif 13.3KB Metadata I?? File for each individual data file
0012_20010222_081436p.mb57.mif 13.3KB Metadata I?? File for each individual data file
0012_20010223_032017p.mb57.mif 13.3KB Metadata I?? File for each individual data file
0013_20010218_011503p.mb57.mif 13.3KB Metadata I?? File for each individual data file
0013_20010219_111758p.mb57.mif 13.3KB Metadata I?? File for each individual data file
0013_20010222_091436p.mb57.mif 13.3KB Metadata I?? File for each individual data file
0013_20010223_042017p.mb57.mif 13.3KB Metadata I?? File for each individual data file
0014_20010218_014456p.mb57.mif 13.3KB Metadata I?? File for each individual data file
0014_20010219_121800p.mb57.mif 13.3KB Metadata I?? File for each individual data file
0014_20010222_101436p.mb57.mif 13.3KB Metadata I?? File for each individual data file
0014_20010223_045811p.mb57.mif 13.3KB Metadata I?? File for each individual data file
0015_20010218_020717p.mb57.mif 13.3KB Metadata I?? File for each individual data file
0015_20010219_131801p.mb57.mif 13.3KB Metadata I?? File for each individual data file
0015_20010222_111436p.mb57.mif 13.3KB Metadata I?? File for each individual data file
0016_20010218_022843p.mb57.mif 13.3KB Metadata I?? File for each individual data file
0016_20010219_141803p.mb57.mif 13.3KB Metadata I?? File for each individual data file
0016_20010222_121436p.mb57.mif 13.3KB Metadata I?? File for each individual data file
0017_20010218_022859p.mb57.mif 13.3KB Metadata I?? File for each individual data file
0017_20010219_151804p.mb57.mif 13.3KB Metadata I?? File for each individual data file
0017_20010222_131436p.mb57.mif 13.3KB Metadata I?? File for each individual data file
0018_20010218_032900p.mb57.mif 13.3KB Metadata I?? File for each individual data file
0018_20010219_161806p.mb57.mif 13.3KB Metadata I?? File for each individual data file
0018_20010222_141436p.mb57.mif 13.3KB Metadata I?? File for each individual data file
0019_20010218_042902p.mb57.mif 13.3KB Metadata I?? File for each individual data file
0019_20010219_164500p.mb57.mif 13.3KB Metadata I?? File for each individual data file
0019_20010222_151436p.mb57.mif 13.3KB Metadata I?? File for each individual data file
0020_20010218_052903p.mb57.mif 13.3KB Metadata I?? File for each individual data file
0020_20010222_161436p.mb57.mif 13.3KB Metadata I?? File for each individual data file
0021_20010219_165516p.mb57.mif 13.3KB Metadata I?? File for each individual data file
0022_20010219_175518p.mb57.mif 13.3KB Metadata I?? File for each individual data file
0023_20010219_185519p.mb57.mif 13.3KB Metadata I?? File for each individual data file
0024_20010219_194105p.mb57.mif 13.3KB Metadata I?? File for each individual data file
0025_20010219_202658p.mb57.mif 13.3KB Metadata I?? File for each individual data file
0027_20010219_210525p.mb57.mif 13.3KB Metadata I?? File for each individual data file
0028_20010219_211701p.mb57.mif 13.3KB Metadata I?? File for each individual data file
0029_20010219_221730p.mb57.mif 13.3KB Metadata I?? File for each individual data file
0030_20010219_222625p.mb57.mif 13.3KB Metadata I?? File for each individual data file
0031_20010219_223519p.mb57.mif 13.3KB Metadata I?? File for each individual data file
SEAW02RR.pdf 212.2KB PDF metadata file